Weather History for Montrose, CO

Change the Weather History Date:

Tuesday, October 9, 2012

  Actual Average Record
Temperature  
Mean Temperature 54 °F 53 °F  
Max Temperature 73 °F 68 °F 80 °F (2003)
Min Temperature 35 °F 38 °F 30 °F (1997)
Degree Days  
Heating Degree Days 11 12  
Month to date heating degree days 77 95  
Since 1 July heating degree days 154 222  
Cooling Degree Days 0 0  
Month to date cooling degree days 0 0  
Year to date cooling degree days 906 643  
Growing Degree Days 4 (Base 50)    
Moisture  
Dew Point 23 °F    
Average Humidity 37    
Maximum Humidity 59    
Minimum Humidity 14    
Precipitation  
Precipitation 0.00 in 0.04 in 0.44 in (2014)
Month to date precipitation 0.00 0.47  
Year to date precipitation 4.87 9.12  
Sea Level Pressure  
Sea Level Pressure 29.97 in    
Wind  
Wind Speed 6 mph (SE)    
Max Wind Speed 15 mph    
Max Gust Speed 18 mph    
Visibility 10 miles    
Events      
T = Trace of Precipitation, MM = Missing Value Source: NWS Daily Summary

Daily Weather History Graph

Daily Weather History Graph

Search for Another Location

Airport:

Trip Planner

Search our weather history database for the weather conditions in past years. The results will help you decide how hot, cold, wet, or windy it might be!

Date:

Astronomy

Oct. 09, 2012 Rise Set
Actual Time 7:15 AM MDT 6:41 PM MDT
Civil Twilight 6:48 AM MDT 7:07 PM MDT
Nautical Twilight 6:18 AM MDT 7:38 PM MDT
Astronomical Twilight 5:47 AM MDT 8:09 PM MDT
Moon 12:59 AM MDT (10/9) 3:06 PM MDT (10/9)
Length of Visible Light 12h 19m
Length of Day
11h 26m
Last Quarter, 36% of the Moon is Illuminated
Oct 9
Last Quarter
Oct 15
New
Oct 21
First Quarter
Oct 29
Full
Nov 6
Last Quarter

Hourly Weather History & Observations

Time (MDT) Temp. Windchill Dew Point Humidity Pressure Visibility Wind Dir Wind Speed Gust Speed Precip Events Conditions
12:53 AM 42.1 °F 37.1 °F 18.0 °F 38% 29.96 in 10.0 mi SE 8.1 mph - N/A   Clear
2:53 AM 39.0 °F 35.7 °F 19.9 °F 46% 29.95 in 10.0 mi SSE 4.6 mph - N/A   Clear
3:53 AM 37.9 °F 35.5 °F 19.9 °F 48% 29.94 in 10.0 mi South 3.5 mph - N/A   Clear
4:53 AM 37.0 °F 33.3 °F 21.0 °F 52% 29.96 in 10.0 mi SSE 4.6 mph - N/A   Clear
5:53 AM 36.0 °F 29.6 °F 23.0 °F 59% 29.98 in 10.0 mi SSE 8.1 mph - N/A   Clear
6:53 AM 36.0 °F 32.1 °F 21.9 °F 57% 30.02 in 10.0 mi SSE 4.6 mph - N/A   Clear
7:53 AM 37.9 °F 33.5 °F 24.1 °F 57% 30.04 in 10.0 mi ESE 5.8 mph - N/A   Clear
8:53 AM 48.0 °F - 26.1 °F 42% 30.03 in 10.0 mi Calm Calm - N/A   Clear
9:53 AM 55.0 °F - 23.0 °F 29% 30.01 in 10.0 mi Calm Calm - N/A   Clear
10:53 AM 59.0 °F - 26.1 °F 28% 30.00 in 10.0 mi Calm Calm - N/A   Clear
11:53 AM 64.9 °F - 26.1 °F 23% 29.97 in 10.0 mi North 4.6 mph - N/A   Clear
12:53 PM 69.1 °F - 21.9 °F 17% 29.94 in 10.0 mi NNW 5.8 mph - N/A   Clear
1:53 PM 71.1 °F - 21.0 °F 15% 29.92 in 10.0 mi NNW 11.5 mph - N/A   Clear
2:53 PM 72.0 °F - 19.9 °F 14% 29.91 in 10.0 mi NNW 11.5 mph - N/A   Clear
3:53 PM 72.0 °F - 19.0 °F 13% 29.91 in 10.0 mi NW 8.1 mph - N/A   Clear
4:53 PM 72.0 °F - 19.9 °F 14% 29.91 in 10.0 mi NW 9.2 mph - N/A   Clear
5:53 PM 68.0 °F - 23.0 °F 18% 29.94 in 10.0 mi NNW 5.8 mph - N/A   Clear
6:53 PM 62.1 °F - 25.0 °F 24% 29.97 in 10.0 mi Calm Calm - N/A   Clear
7:53 PM 55.9 °F - 28.0 °F 34% 30.00 in 10.0 mi SSE 8.1 mph - N/A   Clear
8:53 PM 53.1 °F - 25.0 °F 34% 30.00 in 10.0 mi SE 10.4 mph - N/A   Clear
9:53 PM 52.0 °F - 23.0 °F 32% 29.99 in 10.0 mi SE 10.4 mph - N/A   Clear
10:53 PM 51.1 °F - 24.1 °F 35% 30.00 in 10.0 mi SE 11.5 mph - N/A   Clear
11:53 PM 51.1 °F - 23.0 °F 33% 29.98 in 10.0 mi SE 11.5 mph - N/A   Clear